Flag for Germany Weather past 2 weeks in Wunstorf, Lower Saxony, Germany

Now
75 °F

Mild.


Feels Like: 77 °F
Forecast: 58 / 85 °F
Wind: 3 mph from North

Location: Wunstorf Airport

Current Time: Aug 2, 2015 at 8:35:05 PM

Latest Report: Aug 2, 2015 at 7:20 PM


Visibility: 4 mi

Pressure: 30.09 "Hg

Humidity: 34%

Dew point: 45 °F

Location of WunstorfLocation

Historic Weather in Wunstorf — Graph

°F

Wunstorf temperature yesterday

Maximum temperature yesterday: 77 °F (at 4:20 PM)
Minimum temperature yesterday: 48 °F (at 6:20 AM)
Average temperature yesterday: 63 °F

Past Weeks' High & Low Weather Summary

 TemperatureHumidityPressure
High81 °F (Jul 21, 5:20 PM)100% (Jul 21, 1:20 AM)30.15 "Hg (Jul 21, 1:20 AM)
Low48 °F (Jul 31, 5:20 AM)28% (Aug 2, 5:20 PM)29.47 "Hg (Jul 25, 11:20 AM)
Average64 °F69%29.86 "Hg
* Reported Jul 18 7:20 PM — Aug 2 7:20 PM, Wunstorf, Weather by CustomWeather, © 2015

Note: Actual official high and low records may vary slightly from our data, if they occured in-between our weather recording intervals... More about our weather records

Advertising

Wunstorf weather history for previous 24 hours

 ConditionsComfort  
Time TempWeatherWind HumidityBarometerVisibility
7:20 PM
Sun, Aug 2
75 °FMild.3 mph34%30.09 "Hg4 mi
6:20 PM79 °FPleasantly warm.3 mph28%30.09 "Hg4 mi
5:20 PM79 °FPleasantly warm.5 mph28%30.12 "Hg4 mi
4:20 PM77 °FPleasantly warm.5 mph30%30.12 "Hg4 mi
3:20 PM77 °FPleasantly warm.5 mph30%30.12 "Hg4 mi
2:20 PM75 °FMild.7 mph31%30.15 "Hg4 mi
1:20 PM73 °FMild.7 mph36%30.15 "Hg4 mi
12:20 PM72 °FMild.6 mph44%30.15 "Hg4 mi
11:20 AM70 °FMild.6 mph50%30.15 "HgN/A
10:20 AM68 °FMild.7 mph56%30.12 "Hg6 mi
9:20 AM64 °FMild.7 mph64%30.12 "Hg6 mi
8:20 AM61 °FCool.3 mph77%30.12 "Hg6 mi
7:20 AM57 °FCool.5 mph82%30.09 "Hg4 mi
6:20 AM52 °FCool.2 mph94%30.09 "Hg3 mi
5:20 AM54 °FCool.5 mph88%30.07 "Hg3 mi
4:20 AM55 °FCool.7 mph88%30.07 "Hg3 mi
3:20 AM59 °FCool.5 mph77%30.07 "Hg3 mi
2:20 AM61 °FCool.8 mph72%30.04 "Hg3 mi
1:20 AM63 °FMild.7 mph64%30.04 "Hg3 mi
12:20 AM63 °FMild.6 mph64%30.04 "Hg3 mi
11:20 PM
Sat, Aug 1
64 °FMild.7 mph64%30.04 "Hg4 mi
10:20 PM64 °FMild.6 mph64%30.01 "Hg4 mi
9:20 PM70 °FMild.6 mph53%30.01 "Hg4 mi
8:20 PM73 °FMild.6 mph44%29.98 "Hg4 mi
Weather by CustomWeather, © 2015

See weather overviewHow to use our weather pages